Powrót do katalogu

COSMOS 2251 DEB

AktywnyLEO
NORAD 34317·DEBRIS·🇷🇺 Russia

Wystrzelony Jun 16, 1993 z Plesetsk Cosmodrome

Loading…

Następne Przeloty (najbliższe 24 godziny)

TLE

ŚwieżeSource: Space-Track

Epoka: Sep 14, 2026, 21:28 UTC

1 34317U 93036NP  26257.89505192  .00000500  00000-0  43640-3 0  9995
2 34317  73.9233 300.9865 0336804 238.6724 305.8805 13.65444290873885

Śledź COSMOS 2251 DEB w czasie rzeczywistym z AllMySat

Download on the App Store